Pompano Beach, FL

7:05 PM EDT on July 23, 2017 (GMT -0400)
Pompano Beach

Weather History for KPMP - March, 2013

Change the Weather History Date:

Thursday, March 21, 2013

  Actual Average Record
Temperature  
Mean Temperature 68 °F -  
Max Temperature 73 °F 82 °F 90 °F (1974)
Min Temperature 60 °F 62 °F 42 °F (1960)
Cooling Degree Days 2    
Growing Degree Days 18 (Base 50)    
Moisture  
Dew Point 55 °F    
Average Humidity 70    
Maximum Humidity 100    
Minimum Humidity 33    
Precipitation  
Precipitation 0.00 in - - ()
Sea Level Pressure  
Sea Level Pressure 29.90 in    
Wind  
Wind Speed 9 mph (NNW)    
Max Wind Speed 14 mph    
Max Gust Speed 22 mph    
Visibility 10 miles    
Events      
Averages and records for this station are not official NWS values.
T = Trace of Precipitation, MM = Missing Value Source: NWS Daily Summary

Daily Weather History Graph

Daily Weather History Graph

Search for Another Location

Airport or City:

Trip Planner

Search our weather history database for the weather conditions in past years. The results will help you decide how hot, cold, wet, or windy it might be!

Date:

Astronomy

Mar. 21, 2013 Rise Set
Actual Time 7:23 AM EDT 7:32 PM EDT
Civil Twilight 6:59 AM EDT 7:55 PM EDT
Nautical Twilight 6:33 AM EDT 8:22 PM EDT
Astronomical Twilight 6:06 AM EDT 8:49 PM EDT
Moon 2:27 PM EDT (3/21) 3:15 AM EDT (3/21)
Length of Visible Light 12h 55m
Length of Day
12h 09m
Waxing Gibbous, 68% of the Moon is Illuminated
Mar 21
Waxing Gibbous
Mar 27
Full
Apr 3
Last Quarter
Apr 10
New
Apr 18
First Quarter

Hourly Weather History & Observations

Time (EDT) Temp. Dew Point Humidity Pressure Visibility Wind Dir Wind Speed Gust Speed Precip Events Conditions
12:53 AM 66.0 °F 61.0 °F 84% 29.87 in 10.0 mi West 11.5 mph - N/A   Clear
2:25 AM 64.4 °F 62.6 °F 94% 29.85 in 10.0 mi West 10.4 mph - N/A   Mostly Cloudy
2:53 AM 64.0 °F 62.1 °F 93% 29.85 in 10.0 mi West 10.4 mph - N/A   Scattered Clouds
3:27 AM 64.4 °F 62.6 °F 94% 29.85 in 10.0 mi WNW 9.2 mph - N/A   Partly Cloudy
3:53 AM 63.0 °F 63.0 °F 100% 29.85 in 10.0 mi WNW 10.4 mph - N/A   Clear
4:53 AM 63.0 °F 62.1 °F 97% 29.86 in 10.0 mi WNW 11.5 mph - N/A   Scattered Clouds
5:53 AM 63.0 °F 61.0 °F 93% 29.86 in 10.0 mi NW 8.1 mph - N/A   Clear
6:25 AM 64.4 °F 62.6 °F 94% 29.87 in 10.0 mi NW 10.4 mph 21.9 mph N/A   Mostly Cloudy
6:50 AM 62.6 °F 60.8 °F 94% 29.88 in 10.0 mi NNW 10.4 mph - N/A   Mostly Cloudy
6:53 AM 63.0 °F 61.0 °F 93% 29.88 in 10.0 mi NW 13.8 mph - N/A   Overcast
7:31 AM 62.6 °F 60.8 °F 94% 29.90 in 10.0 mi NW 4.6 mph - N/A   Scattered Clouds
7:53 AM 63.0 °F 60.1 °F 90% 29.91 in 10.0 mi NNW 12.7 mph - N/A   Scattered Clouds
8:53 AM 64.9 °F 55.9 °F 73% 29.93 in 10.0 mi NNW 11.5 mph - N/A   Clear
9:53 AM 66.9 °F 52.0 °F 59% 29.95 in 10.0 mi NW 9.2 mph - N/A   Clear
10:53 AM 69.1 °F 46.9 °F 45% 29.95 in 10.0 mi North 10.4 mph - N/A   Clear
11:53 AM 72.0 °F 44.1 °F 37% 29.95 in 10.0 mi NNW 5.8 mph - N/A   Partly Cloudy
12:53 PM 73.9 °F 43.0 °F 33% 29.93 in 10.0 mi NNE 8.1 mph - N/A   Clear
1:53 PM 72.0 °F 53.1 °F 51% 29.91 in 10.0 mi East 8.1 mph - N/A   Clear
2:53 PM 73.0 °F 52.0 °F 48% 29.90 in 10.0 mi NE 12.7 mph - N/A   Partly Cloudy
3:53 PM 73.9 °F 52.0 °F 46% 29.89 in 10.0 mi NE 9.2 mph - N/A   Clear
4:53 PM 72.0 °F 52.0 °F 49% 29.89 in 10.0 mi ENE 10.4 mph - N/A   Clear
5:53 PM 71.1 °F 51.1 °F 49% 29.91 in 10.0 mi NE 10.4 mph - N/A   Clear
6:53 PM 69.1 °F 50.0 °F 51% 29.92 in 10.0 mi ENE 8.1 mph - N/A   Clear
7:53 PM 66.9 °F 50.0 °F 54% 29.93 in 10.0 mi Calm Calm - N/A   Clear
8:53 PM 64.9 °F 51.1 °F 61% 29.94 in 10.0 mi Calm Calm - N/A   Clear
9:53 PM 64.9 °F 50.0 °F 58% 29.96 in 10.0 mi Calm Calm - N/A   Clear
10:53 PM 63.0 °F 50.0 °F 63% 29.96 in 10.0 mi Calm Calm - N/A   Clear
11:53 PM 60.1 °F 48.9 °F 67% 29.96 in 10.0 mi Calm Calm - N/A   Clear